Back to catalog

STARLINK-35067

AliveCommunicationsSSO
NORAD 65527·PAYLOAD·🇺🇸 United States

Launched Sep 6, 2025 from Cape Canaveral Space Force Station

Loading…

Next Passes (next 24 hours)

TLE

FreshSource: CelesTrak SupGP

Epoch: Sep 14, 2026, 20:54 UTC

1 65527C 25200H   26257.87131944 -.00042719  00000+0 -13262-2 0  2570
2 65527  97.2847 324.3233 0001390  94.3315  54.2846 15.33458502    18

Track STARLINK-35067 in real time with AllMySat

Download on the App Store